Weather observations for the past three days for
Wise / Lonesome Pine
Imperial (Metric)
Date Time (edt) Wind (mph) Vis. (mi.) Weather Sky Cond. Temperature (ºF) Relative Humidity Wind Chill (°F) Heat Index (°F) Pressure Precipitation (in)
Air Dwpt 6 hour altimeter (in) sea level (mb) 1 hr 3 hr 6 hr
Max. Min.
17 02:15 S 5 10.00 Fair CLR 69.8 64.4 83% 30.23 0.0
17 01:55 S 5 10.00 Fair CLR 69.8 66.2 88% 30.23 0.0
17 01:35 S 5 10.00 Fair CLR 69.8 66.2 88% 30.23 0.0
17 01:15 S 6 10.00 Fair CLR 69.8 66.2 88% 30.23 0.0
17 00:55 S 5 10.00 Fair CLR 69.8 66.2 88% 30.23 0.0
17 00:35 S 5 10.00 Fair CLR 69.8 66.2 88% 30.23 0.0
17 00:15 S 5 10.00 Fair CLR 69.8 66.2 88% 30.23 0.0
16 23:55 S 6 10.00 Fair CLR 71.6 66.2 83% 30.23 0.0
16 23:35 S 6 10.00 Fair CLR 71.6 66.2 83% 30.23 0.0
16 23:15 S 5 10.00 Fair CLR 71.6 66.2 83% 30.23 0.0
16 22:55 S 6 10.00 Fair CLR 71.6 68 88% 30.23 0.0
16 22:35 S 5 10.00 Fair CLR 71.6 66.2 83% 30.23 0.0
16 22:15 S 6 10.00 Fair CLR 71.6 66.2 83% 30.23 0.0
16 21:55 S 6 10.00 Fair CLR 73.4 66.2 78% 30.22 0.0
16 21:35 S 8 10.00 Fair CLR 73.4 66.2 78% 30.21 0.0
16 21:15 S 8 10.00 Fair CLR 75.2 66.2 74% 77 30.19 0.0
16 20:55 SW 7 10.00 Fair CLR 75.2 66.2 74% 77 30.19 0.0
16 20:35 S 7 10.00 Fair CLR 77 66.2 69% 79 30.19 0.0
16 20:15 SW 7 10.00 Fair CLR 77 64.4 65% 79 30.18 0.0
16 19:55 SW 7 10.00 Fair CLR 78.8 64.4 61% 81 30.18 0.0
16 19:35 SW 7 10.00 Fair CLR 78.8 64.4 61% 81 30.18 0.0
16 19:15 S 7 10.00 Fair CLR 78.8 66.2 65% 81 30.18 0.0
16 18:55 S 7 10.00 Fair CLR 80.6 66.2 62% 83 30.18 0.0
16 18:35 S 8 10.00 Fair CLR 82.4 66.2 58% 85 30.17 0.0
16 18:15 S 6 10.00 Fair CLR 80.6 66.2 62% 83 30.17 0.0
16 17:55 S 7 10.00 Fair CLR 80.6 64.4 58% 82 30.16 0.0
16 17:35 S 8 10.00 Partly Cloudy SCT060 80.6 66.2 62% 83 30.17 0.0
16 17:15 S 8 10.00 Partly Cloudy SCT060 82.4 64.4 55% 84 30.17 0.0
16 16:55 SW 7 10.00 Fair CLR 82.4 62.6 51% 83 30.18 0.0
16 16:35 SW 6 10.00 Partly Cloudy SCT050 SCT070 82.4 62.6 51% 83 30.18 0.0
16 16:15 Calm 10.00 Fair CLR 86 60.8 43% 86 30.18 0.0
16 15:55 SW 3 10.00 Partly Cloudy SCT050 86 62.6 46% 87 30.18 0.0
16 15:35 Calm 10.00 Mostly Cloudy BKN050 82.4 60.8 48% 83 30.19 0.0
16 15:15 SW 6 10.00 Mostly Cloudy BKN050 84.2 62.6 48% 85 30.19 0.0
16 14:55 SW 9 10.00 Partly Cloudy SCT049 SCT060 84.2 60.8 45% 84 30.19 0.0
16 14:35 W 8 10.00 Partly Cloudy SCT049 84.2 62.6 48% 85 30.21 0.0
16 14:15 W 7 10.00 Partly Cloudy SCT047 82.4 60.8 48% 83 30.21 0.0
16 13:55 SW 8 10.00 Partly Cloudy SCT047 SCT050 82.4 62.6 51% 83 30.21 0.0
16 13:35 SW 9 10.00 Partly Cloudy SCT045 SCT050 82.4 60.8 48% 83 30.22 0.0
16 13:15 SW 7 10.00 Partly Cloudy SCT041 80.6 62.6 54% 82 30.23 0.0
16 12:55 W 6 10.00 Partly Cloudy SCT036 80.6 64.4 58% 82 30.23 0.0
16 12:35 S 3 10.00 Mostly Cloudy BKN034 BKN044 78.8 64.4 61% 81 30.23 0.0
16 12:15 S 3 10.00 Mostly Cloudy BKN034 BKN044 78.8 64.4 61% 81 30.23 0.0
16 11:55 S 7 10.00 Partly Cloudy SCT036 78.8 64.4 61% 81 30.23 0.0
16 11:35 S 7 10.00 Fair CLR 78.8 62.6 58% 80 30.23 0.0
16 11:15 S 7 10.00 Fair CLR 77 62.6 61% 79 30.23 0.0
16 10:55 S 8 10.00 Fair CLR 77 62.6 61% 79 30.23 0.0
16 10:35 S 7 10.00 Partly Cloudy SCT060 77 62.6 61% 79 30.23 0.0
16 10:15 S 9 10.00 Fair CLR 75.2 62.6 65% 77 30.23 0.0
16 09:55 S 7 10.00 Fair CLR 73.4 60.8 65% 30.23 0.0
16 09:35 S 8 10.00 Fair CLR 73.4 62.6 69% 30.23 0.0
16 09:15 S 5 10.00 Fair CLR 73.4 60.8 65% 30.22 0.0
16 08:55 S 6 10.00 Fair CLR 71.6 60.8 69% 30.22 0.0
16 08:35 S 5 10.00 Fair CLR 71.6 60.8 69% 30.21 0.0
16 08:15 S 3 10.00 Fair CLR 69.8 59 69% 30.21 0.0
16 07:55 S 5 10.00 Fair CLR 69.8 59 69% 30.21 0.0
16 07:35 Calm 10.00 Fair CLR 68 59 73% 30.2 0.0
16 07:15 Calm 10.00 Fair CLR 66.2 59 78% 30.2 0.0
16 06:55 Calm 10.00 Fair CLR 64.4 59 83% 30.19 0.0
16 06:35 SE 5 10.00 Fair CLR 68 57.2 69% 30.18 0.0
16 06:15 S 6 10.00 Fair CLR 66.2 55.4 68% 30.17 0.0
16 05:55 S 5 10.00 Fair CLR 66.2 55.4 68% 30.17 0.0
16 05:35 S 3 10.00 Fair CLR 66.2 55.4 68% 30.17 0.0
16 05:15 S 5 10.00 Fair CLR 66.2 55.4 68% 30.16 0.0
16 04:55 SE 3 10.00 Fair CLR 66.2 55.4 68% 30.16 0.0
16 04:35 S 5 10.00 Fair CLR 68 55.4 64% 30.16 0.0
16 04:15 S 5 10.00 Fair CLR 68 55.4 64% 30.16 0.0
16 03:55 S 7 10.00 Fair CLR 68 55.4 64% 30.16 0.0
16 03:35 S 6 10.00 Fair CLR 68 55.4 64% 30.15 0.0
16 03:15 SE 7 10.00 Fair CLR 68 53.6 60% 30.15 0.0
16 02:55 S 7 10.00 Fair CLR 68 51.8 56% 30.15 0.0
16 02:35 S 5 10.00 Fair CLR 66.2 50 56% 30.15 0.0
16 02:15 Calm 10.00 Fair CLR 64.4 50 60% 30.15 0.0
16 01:55 Calm 10.00 Fair CLR 64.4 46.4 52% 30.16 0.0
16 01:35 Calm 10.00 Fair CLR 60.8 48.2 63% 30.16 0.0
16 01:15 Calm 10.00 Fair CLR 60.8 48.2 63% 30.17 0.0
16 00:55 Calm 10.00 Fair CLR 64.4 48.2 56% 30.17 0.0
16 00:35 Calm 10.00 Fair CLR 64.4 48.2 56% 30.18 0.0
16 00:15 Calm 10.00 Fair CLR 66.2 48.2 52% 30.18 0.0
15 23:55 E 3 10.00 Fair CLR 66.2 48.2 52% 30.18 0.0
15 23:35 NE 5 10.00 Fair CLR 66.2 48.2 52% 30.19 0.0
15 23:15 NE 5 10.00 Fair CLR 66.2 48.2 52% 30.2 0.0
15 22:55 NE 6 10.00 Fair CLR 68 48.2 49% 30.19 0.0
15 22:35 NE 6 10.00 Fair CLR 64.4 50 60% 30.19 0.0
15 22:15 NE 5 10.00 Fair CLR 66.2 50 56% 30.18 0.0
15 21:55 N 7 10.00 Fair CLR 66.2 51.8 60% 30.18 0.0
15 21:35 N 6 10.00 Fair CLR 68 51.8 56% 30.18 0.0
15 21:15 N 5 10.00 Fair CLR 68 51.8 56% 30.17 0.0
15 20:55 N 6 10.00 Fair CLR 68 51.8 56% 30.16 0.0
15 20:35 N 7 10.00 Fair CLR 69.8 51.8 53% 30.16 0.0
15 20:15 N 8 10.00 Fair CLR 71.6 51.8 50% 30.16 0.0
15 19:55 N 8 10.00 Fair CLR 73.4 51.8 47% 30.16 0.0
15 19:35 N 8 10.00 Fair CLR 75.2 53.6 47% 78 30.16 0.0
15 19:15 N 7 7.00 Fair CLR 77 53.6 44% 78 30.15 0.0
15 18:55 N 8 7.00 Fair CLR 77 53.6 44% 78 30.15 0.0
15 18:35 N 8 10.00 Fair CLR 78.8 53.6 42% 79 30.15 0.0
15 18:15 NE 6 10.00 Fair CLR 78.8 53.6 42% 79 30.15 0.0
15 17:55 N 8 10.00 Fair CLR 78.8 53.6 42% 79 30.15 0.0
15 17:35 Calm 10.00 Fair CLR 78.8 51.8 39% 79 30.15 0.0
15 17:15 NE 9 10.00 Fair CLR 78.8 53.6 42% 79 30.16 0.0
15 16:55 N 7 10.00 Fair CLR 80.6 51.8 37% 80 30.15 0.0
15 16:35 NW 6 10.00 Fair CLR 80.6 51.8 37% 80 30.16 0.0
15 16:15 NE 9 10.00 Fair CLR 78.8 53.6 42% 79 30.16 0.0
15 15:55 NE 5 10.00 Fair CLR 78.8 51.8 39% 79 30.16 0.0
15 15:35 NE 5 10.00 Fair CLR 78.8 51.8 39% 79 30.16 0.0
15 15:15 NE 5 10.00 Partly Cloudy SCT055 77 53.6 44% 78 30.17 0.0
15 14:55 NE 8 10.00 Partly Cloudy SCT065 80.6 53.6 39% 80 30.17 0.0
15 14:35 N 7 10.00 Partly Cloudy SCT049 80.6 55.4 42% 81 30.17 0.0
15 13:35 Calm 10.00 Fair CLR 77 53.6 44% 78 30.18 0.0
15 13:15 NE 9 10.00 Partly Cloudy SCT039 SCT049 77 51.8 42% 78 30.18 0.0
15 12:55 NE 6 10.00 Partly Cloudy SCT037 SCT060 75.2 55.4 50% 78 30.19 0.0
15 12:35 NE 10 G 16 10.00 Fair CLR 77 59 54% 79 30.18 0.0
15 12:15 N 10 10.00 Fair CLR 77 57.2 51% 79 30.19 0.0
15 11:55 N 8 10.00 Fair CLR 75.2 57.2 54% 78 30.19 0.0
15 11:35 NE 10 10.00 Fair CLR 73.4 55.4 53% 30.18 0.0
15 11:15 N 10 10.00 Fair CLR 73.4 59 61% 30.18 0.0
15 10:55 NE 12 10.00 Partly Cloudy SCT022 73.4 60.8 65% 30.18 0.0
15 10:35 NE 7 10.00 Fair CLR 71.6 60.8 69% 30.18 0.0
15 10:15 N 7 10.00 Fair CLR 71.6 62.6 73% 30.18 0.0
15 09:55 N 7 10.00 Fair CLR 69.8 62.6 78% 30.17 0.0
15 09:35 N 8 10.00 Fair CLR 69.8 62.6 78% 30.17 0.0
15 09:15 NE 6 10.00 Fair CLR 68 62.6 83% 30.17 0.0
15 08:55 NE 8 10.00 Fair CLR 66.2 62.6 88% 30.17 0.0
15 08:35 N 8 10.00 Fair CLR 66.2 62.6 88% 30.17 0.0
15 08:15 NE 6 10.00 Partly Cloudy SCT008 66.2 62.6 88% 30.16 0.0
15 07:55 NE 5 10.00 Fair CLR 64.4 62.6 94% 30.16 0.0
15 07:35 NE 5 10.00 Fair CLR 64.4 62.6 94% 30.15 0.0
15 07:15 NE 5 10.00 Fair CLR 64.4 62.6 94% 30.14 0.0
15 06:55 NE 5 10.00 Partly Cloudy SCT020 62.6 60.8 94% 30.14 0.0
15 06:35 N 3 10.00 Partly Cloudy SCT020 62.6 60.8 94% 30.14 0.0
15 06:15 Calm 10.00 Fair CLR 64.4 60.8 88% 30.12 0.0
15 05:55 N 3 10.00 Fair CLR 64.4 60.8 88% 30.11 0.0
15 05:35 N 6 10.00 Fair CLR 64.4 60.8 88% 30.11 0.0
15 05:15 N 3 10.00 Fair CLR 64.4 60.8 88% 30.1 0.0
15 04:55 Calm 10.00 Fair CLR 66.2 60.8 83% 30.09 0.0
15 04:35 NW 3 10.00 Fair CLR 66.2 60.8 83% 30.09 0.0
15 04:15 NW 5 10.00 Fair CLR 68 60.8 78% 30.09 0.0
15 03:55 N 5 10.00 Fair CLR 66.2 59 78% 30.09 0.0
15 03:35 Calm 10.00 Fair CLR 62.6 60.8 94% 30.08 0.0
15 03:15 Calm 10.00 Fair CLR 62.6 60.8 94% 30.08 0.0
15 02:55 Calm 10.00 Fair CLR 62.6 60.8 94% 30.08 0.0
15 02:35 Calm 10.00 Fair CLR 62.6 60.8 94% 30.08 0.0
15 02:15 Calm 10.00 Fair CLR 64.4 60.8 88% 30.09 0.0
15 01:55 Calm 10.00 Fair CLR 64.4 60.8 88% 30.09 0.0
15 01:35 Calm 10.00 Fair CLR 64.4 60.8 88% 30.09 0.0
15 01:15 SW 3 10.00 Fair CLR 62.6 60.8 94% 30.09 0.0
15 00:55 SW 3 10.00 Fair CLR 64.4 60.8 88% 30.09 0.0
15 00:35 Calm 10.00 Fair CLR 64.4 60.8 88% 30.09 0.0
15 00:15 SW 5 10.00 Partly Cloudy SCT070 66.2 60.8 83% 30.09 0.0
14 23:55 SW 3 7.00 Partly Cloudy SCT070 68 60.8 78% 30.09 0.0
14 23:35 Calm 7.00 Fair CLR 68 60.8 78% 30.09 0.0
14 23:15 S 3 10.00 Fair CLR 69.8 60.8 73% 30.09 0.0
14 22:55 Calm 10.00 Fair CLR 68 60.8 78% 30.09 0.0
14 22:35 Calm 10.00 Partly Cloudy SCT120 68 60.8 78% 30.08 0.0
14 22:15 SW 3 10.00 Partly Cloudy SCT120 68 60.8 78% 30.08 0.0
14 21:55 W 3 10.00 Partly Cloudy SCT120 71.6 60.8 69% 30.08 0.0
14 21:35 W 3 10.00 Fair CLR 71.6 60.8 69% 30.07 0.0
14 21:15 Calm 10.00 Fair CLR 71.6 60.8 69% 30.06 0.0
14 20:55 Calm 10.00 Fair CLR 73.4 60.8 65% 30.05 0.0
14 20:35 NW 3 10.00 Fair CLR 73.4 62.6 69% 30.06 0.0
14 20:15 NW 5 10.00 Partly Cloudy SCT045 75.2 62.6 65% 77 30.05 0.0
14 19:55 W 6 10.00 Mostly Cloudy BKN045 BKN050 77 60.8 57% 79 30.05 0.0
14 19:35 NW 3 10.00 Mostly Cloudy BKN045 BKN050 BKN090 78.8 60.8 54% 80 30.05 0.0
14 19:15 NW 5 10.00 Mostly Cloudy SCT045 SCT085 BKN100 77 60.8 57% 79 30.04 0.0
14 18:55 NW 5 10.00 Overcast SCT041 BKN050 OVC095 78.8 62.6 58% 80 30.04 0.0
14 18:35 SW 5 10.00 Overcast BKN041 BKN050 OVC095 77 62.6 61% 79 30.04 0.0
14 18:15 SW 9 10.00 Overcast BKN041 BKN050 OVC095 77 62.6 61% 79 30.03 0.0
14 17:55 SW 6 10.00 Overcast SCT043 BKN070 OVC095 78.8 62.6 58% 80 30.03 0.0
14 17:35 SW 8 10.00 Overcast SCT050 SCT070 OVC095 78.8 60.8 54% 80 30.04 0.0
14 17:15 W 8 10.00 Overcast SCT048 BKN070 OVC095 80.6 59 48% 81 30.04 0.0
14 16:55 SW 7 10.00 Mostly Cloudy SCT048 BKN065 BKN110 78.8 59 51% 80 30.04 0.0
14 16:35 W 6 10.00 Partly Cloudy SCT075 SCT100 80.6 60.8 51% 81 30.04 0.0
14 16:15 W 7 10.00 Mostly Cloudy SCT050 BKN060 BKN070 80.6 60.8 51% 81 30.05 0.0
14 15:55 W 7 10.00 Mostly Cloudy SCT042 BKN050 BKN060 80.6 60.8 51% 81 30.05 0.0
14 15:35 N 6 10.00 Mostly Cloudy BKN044 BKN050 80.6 60.8 51% 81 30.05 0.0
14 15:15 NW 3 10.00 Partly Cloudy SCT041 SCT046 78.8 60.8 54% 80 30.06 0.0
14 14:55 W 7 10.00 Fair CLR 80.6 62.6 54% 82 30.06 0.0
14 14:35 NW 7 10.00 Mostly Cloudy SCT048 SCT060 BKN095 78.8 62.6 58% 80 30.06 0.0
14 14:15 NW 5 10.00 Mostly Cloudy SCT047 SCT050 BKN100 77 60.8 57% 79 30.08 0.0
14 13:55 N 8 10.00 Partly Cloudy SCT060 SCT095 SCT120 78.8 60.8 54% 80 30.08 0.0
14 13:35 N 6 10.00 Mostly Cloudy SCT041 SCT050 BKN110 77 60.8 57% 79 30.08 0.0
14 13:15 NW 3 10.00 Partly Cloudy SCT041 SCT110 78.8 60.8 54% 80 30.08 0.0
14 12:55 N 7 10.00 Partly Cloudy SCT039 SCT050 SCT110 78.8 60.8 54% 80 30.09 0.0
14 12:35 W 7 10.00 Overcast SCT039 BKN050 OVC110 78.8 60.8 54% 80 30.09 0.0
14 12:15 W 6 10.00 Mostly Cloudy SCT039 BKN050 BKN110 78.8 59 51% 80 30.09 0.0
14 11:55 NW 6 10.00 Partly Cloudy SCT037 SCT047 SCT050 78.8 60.8 54% 80 30.09 0.0
14 11:35 NW 8 10.00 Partly Cloudy SCT035 SCT044 SCT050 77 60.8 57% 79 30.1 0.0
14 11:15 NW 7 10.00 Mostly Cloudy BKN030 BKN036 BKN044 75.2 60.8 61% 77 30.1 0.0
14 10:55 W 8 10.00 Mostly Cloudy BKN028 BKN033 BKN110 75.2 62.6 65% 77 30.1 0.0
14 10:35 W 7 10.00 Overcast SCT028 SCT033 OVC100 77 62.6 61% 79 30.1 0.0
14 10:15 W 6 10.00 Mostly Cloudy BKN100 75.2 62.6 65% 77 30.1 0.0
14 09:55 W 10 10.00 Partly Cloudy SCT110 73.4 62.6 69% 30.11 0.0
14 09:35 W 7 10.00 Partly Cloudy SCT110 73.4 62.6 69% 30.11 0.0
14 09:15 W 5 10.00 Fair CLR 71.6 62.6 73% 30.1 0.0
14 08:55 W 6 10.00 Fair CLR 71.6 62.6 73% 30.11 0.0
14 08:35 SW 6 10.00 Fair CLR 69.8 60.8 73% 30.1 0.0
14 08:15 SW 5 10.00 Fair CLR 68 60.8 78% 30.1 0.0
14 07:55 SW 5 10.00 Fair CLR 66.2 60.8 83% 30.1 0.0
14 07:35 SW 5 10.00 Fair CLR 64.4 60.8 88% 30.1 0.0
14 07:15 SW 5 10.00 Fair CLR 62.6 60.8 94% 30.09 0.0
14 06:55 SW 5 10.00 Fair CLR 60.8 59 94% 30.09 0.0
14 06:35 Calm 10.00 Fair CLR 60.8 57.2 88% 30.09 0.0
14 06:15 Calm 10.00 Fair CLR 60.8 59 94% 30.08 0.0
14 05:55 SW 3 10.00 Fair CLR 60.8 59 94% 30.08 0.0
14 05:35 SW 5 10.00 Fair CLR 60.8 59 94% 30.08 0.0
14 05:15 Calm 10.00 Fair CLR 59 57.2 94% 30.07 0.0
14 04:55 Calm 10.00 Fair CLR 60.8 59 94% 30.07 0.0
14 04:35 Calm 10.00 Fair CLR 59 59 100% 30.07 0.0
14 04:15 Calm 10.00 Fair CLR 62.6 59 88% 30.07 0.0
14 03:55 Calm 10.00 Fair CLR 62.6 59 88% 30.08 0.0
14 03:35 Calm 10.00 Fair CLR 62.6 59 88% 30.08 0.0
14 03:15 Calm 10.00 Fair CLR 60.8 57.2 88% 30.08 0.0
14 02:55 Calm 10.00 Fair CLR 62.6 59 88% 30.09 0.0
Date Time (edt) Wind (mph) Vis. (mi.) Weather Sky Cond. Air Dwpt Max. Min. Relative Humidity Wind Chill (°F) Heat Index (°F) altimeter (in) sea level (mb) 1 hr 3 hr 6 hr
6 hour
Temperature (ºF) Pressure Precipitation (in)